Temperature
26 25 24 23 22 21 21 20 20 20 19 19 19 19 19 19 19 19 19 19 19 19 19 18 18 18 18 18 18 18 18 18 18 18 18 18 18 18 18 18 18 18 18
26 24 24 23 22 21 21 20 20 20 19 19 19 19 19 19 19 19 19 19 19 18 18 18 18 19 18 18 18 18 18 18 18 18 18 18 19 19 19 19 18 18 18
26 24 24 23 22 21 20 20 20 19 19 19 19 19 19 19 18 18 19 19 19 18 18 18 18 18 18 18 18 18 18 18 18 18 18 18 19 19 19 19 19 19 18
26 25 24 23 22 21 20 20 20 19 19 19 19 18 18 19 19 19 19 19 18 18 18 18 18 18 18 18 18 18 18 18 18 18 18 19 19 19 19 19 19 19 19
27 26 24 23 22 21 21 20 20 19 19 19 18 18 18 18 19 18 18 18 18 18 18 18 18 18 18 18 18 18 18 18 18 18 18 18 18 19 19 19 19 19 19
27 26 24 23 22 21 21 20 19 19 19 18 18 18 18 18 18 18 18 18 18 18 18 18 18 18 18 18 18 18 18 18 18 18 18 18 18 18 19 19 19 19 19
27 25 24 23 22 21 21 20 19 19 19 18 18 18 18 18 18 18 18 18 18 18 18 18 18 18 18 18 18 18 18 18 18 18 18 18 18 18 19 19 19 19 19
27 25 24 23 22 21 20 20 19 19 19 18 19 18 18 18 18 18 18 18 18 18 18 18 18 18 18 18 18 18 18 18 18 18 18 18 18 18 18 19 19 19 19
27 25 24 23 22 21 20 20 19 19 19 18 18 18 18 18 18 18 18 18 18 18 18 18 18 18 18 18 18 18 18 17 17 18 18 18 18 18 18 18 18 18 18
26 25 24 23 22 21 20 20 19 19 19 18 18 18 18 18 18 18 18 18 18 18 18 18 17 18 17 18 17 17 18 17 17 17 17 17 17 18 18 18 18 18 18
26 25 24 23 22 21 20 20 19 19 19 18 18 18 18 18 18 18 18 18 18 18 17 17 17 17 17 17 17 17 17 17 17 17 17 17 17 17 17 18 18 18 18
25 24 23 23 22 21 21 20 20 19 19 18 18 18 18 18 18 18 18 18 17 17 17 17 17 17 17 17 17 17 17 17 17 17 17 17 17 17 17 17 17 17 17
25 24 23 22 22 21 20 20 19 19 19 18 18 18 18 18 18 18 18 17 17 17 17 17 17 17 17 17 17 17 17 17 17 17 17 17 16 17 17 17 17 17 17
24 23 22 22 21 21 20 20 19 19 19 18 18 18 18 18 17 17 17 17 17 17 17 17 17 17 17 16 16 16 16 16 16 16 16 16 16 16 16 16 16 16 16
23 23 22 21 21 21 20 20 19 19 19 18 18 18 18 17 17 17 17 17 17 17 17 16 16 16 16 16 16 16 16 16 16 16 16 16 16 16 16 16 16 16 16
22 22 21 21 20 20 20 19 19 19 18 18 18 17 17 17 17 17 17 16 16 16 16 16 16 16 16 16 16 16 16 16 16 15 15 15 15 15 15 15 15 15 15
22 21 20 20 20 19 19 19 19 19 18 18 17 17 17 17 16 16 16 16 16 16 16 16 16 16 16 16 16 16 15 15 15 15 15 15 15 15 15 15 15 15 15
21 20 20 19 19 19 19 19 18 18 18 18 17 17 17 16 16 16 16 16 16 16 16 15 15 15 15 15 15 15 15 15 15 15 15 14 14 14 14 14 14 14 14
20 19 19 19 18 18 18 18 18 18 17 17 17 16 16 16 16 16 16 15 15 15 15 15 15 15 15 15 15 15 14 14 14 14 14 14 14 14 14 13 13 13 13
19 19 18 18 18 18 18 18 17 17 17 17 16 16 16 16 16 16 15 15 15 15 15 14 14 14 14 14 14 14 14 14 14 13 13 13 13 13 13 13 13 13 13
18 18 17 17 17 17 17 17 17 17 16 16 16 16 16 16 15 15 15 15 15 14 14 14 14 13 13 13 13 14 13 13 13 13 13 12 12 12 12 12 12 12 12
17 17 16 16 16 16 16 16 16 16 16 16 16 15 15 15 15 15 14 14 14 14 14 13 13 13 13 13 13 13 13 13 13 12 12 12 12 12 12 12 11 11 11
16 16 16 15 15 15 15 15 15 15 15 15 15 14 14 14 14 14 14 14 14 13 13 13 12 12 12 12 12 12 12 12 12 11 11 11 11 11 11 11 11 10 10
15 15 15 15 14 14 15 14 14 14 15 14 14 14 14 14 13 13 13 13 13 13 12 12 12 12 11 11 11 11 11 11 11 11 11 11 10 10 10 10 10 9 9
15 14 14 14 14 14 14 14 14 14 14 14 13 13 13 13 13 13 12 12 12 12 12 12 12 11 11 11 11 11 10 10 10 10 10 10 10 10 9 9 9 9 9
14 14 14 13 13 13 13 13 13 13 13 13 13 13 12 12 12 12 12 11 11 11 11 11 11 11 10 10 10 10 10 10 10 10 9 9 9 9 9 8 8 8 8
Wind_Speed
13 13 13 14 13 13 12 12 11 10 9 8 8 8 7 5 5 5 8 11 11 11 8 5 6 4 4 5 5 3 3 3 3 2 2 2 4 5 4 4 4 6 10
13 12 12 13 13 12 12 12 11 11 11 8 7 6 6 6 6 5 6 11 11 10 10 5 6 6 4 4 4 4 2 3 3 2 2 1 2 2 5 4 5 6 6
14 14 14 13 13 13 13 12 11 10 11 9 7 5 4 4 5 6 6 7 10 10 8 7 6 6 6 6 5 5 5 4 3 3 2 2 2 2 2 5 5 5 4
13 14 14 13 12 12 12 10 10 10 10 9 9 9 8 8 7 6 6 7 8 9 9 8 7 6 5 6 7 7 5 5 4 3 3 2 1 1 1 2 3 5 5
12 12 12 11 10 10 10 10 10 10 9 9 9 9 8 7 5 6 7 7 7 8 9 8 7 7 6 6 7 5 5 5 5 4 3 3 2 3 2 2 2 3 4
10 10 10 10 9 9 9 10 9 9 9 9 9 10 9 8 8 8 8 7 7 7 8 8 7 7 7 6 6 6 7 5 5 3 3 2 3 3 3 3 3 4 4
10 10 10 10 9 9 8 9 9 8 9 9 9 10 9 9 9 8 8 8 7 7 9 9 7 7 7 6 6 7 6 7 6 5 4 3 3 3 3 3 3 3 3
9 10 9 9 9 9 8 8 9 8 8 9 8 7 8 7 7 7 7 8 7 7 8 9 8 8 7 8 7 6 7 6 6 7 6 3 4 3 3 3 2 2 2
9 11 10 9 8 9 9 8 8 8 7 7 7 7 7 7 7 6 7 6 6 7 8 9 9 8 7 7 6 5 6 6 6 6 6 5 4 4 3 2 1 2 2
10 10 10 9 7 7 7 7 7 7 6 6 5 6 5 5 5 5 6 6 6 6 6 7 8 8 7 7 6 5 5 6 5 4 4 4 4 3 3 2 2 2 2
8 8 9 9 8 7 8 7 7 6 5 5 4 3 4 4 5 4 5 4 4 4 5 6 6 6 6 6 6 5 5 6 5 5 5 5 3 3 3 2 2 2 2
8 9 8 9 7 7 7 6 6 6 5 5 4 3 3 3 4 4 4 4 4 4 4 4 4 5 6 6 6 6 6 6 5 5 4 4 4 4 3 3 3 2 2
9 8 7 7 7 6 5 5 4 5 5 5 4 3 3 3 3 3 3 3 3 4 4 4 4 4 4 5 5 5 5 5 4 4 4 4 4 4 4 3 3 2 2
8 8 6 6 5 5 5 5 4 4 4 4 4 3 3 3 3 2 2 3 3 3 3 4 4 3 3 4 4 4 4 4 3 3 3 3 3 4 4 3 2 2 3
7 7 6 5 5 4 4 4 4 4 4 5 4 4 3 3 3 3 2 2 2 3 3 3 3 3 3 3 4 4 4 3 3 2 2 2 2 1 1 1 1 2 1
7 6 5 5 4 3 3 3 4 5 5 5 4 4 4 4 3 3 3 3 3 3 3 3 4 3 1 2 4 4 3 3 2 1 1 1 1 2 2 2 2 1 1
7 6 5 4 3 3 3 3 3 5 5 5 4 4 4 4 4 4 4 4 4 4 4 4 4 5 5 6 6 6 4 4 3 2 2 1 2 3 1 1 2 1 1
7 6 5 4 4 3 3 3 3 4 5 5 5 5 5 5 5 5 5 5 5 5 5 4 5 6 6 6 6 5 4 4 5 5 4 3 4 4 4 2 1 1 1
7 6 5 5 5 4 4 4 4 5 5 5 5 5 5 6 5 6 6 5 6 6 6 6 6 7 7 6 6 4 4 5 6 6 6 6 6 7 7 3 3 2 2
7 6 7 7 6 6 6 5 5 5 5 5 5 5 5 6 6 6 7 6 6 7 7 8 8 8 8 8 8 6 4 5 5 5 7 10 8 9 8 4 4 3 3
9 8 8 8 7 7 6 6 6 6 6 6 7 7 7 7 7 7 7 7 7 8 8 8 8 8 9 9 10 9 5 5 6 6 6 6 10 10 10 7 5 4 3
9 9 8 8 8 7 7 7 7 7 7 8 9 8 8 7 8 8 7 7 7 8 7 7 8 8 8 10 10 12 11 8 7 7 6 5 8 8 8 7 6 7 6
9 8 9 9 8 8 8 8 8 8 9 9 10 10 10 9 8 8 7 6 5 6 6 7 7 7 7 8 12 12 12 12 8 6 6 5 5 5 4 6 7 7 6
9 8 9 9 9 9 9 8 8 8 9 11 10 10 11 12 12 10 9 8 7 6 6 7 7 7 7 6 5 5 7 8 7 5 4 3 3 3 4 5 5 5 6
9 9 9 9 9 8 9 8 8 9 10 11 11 11 12 12 12 13 11 10 9 7 7 7 7 7 7 6 7 6 5 4 5 3 2 3 3 4 4 5 5 5 6
10 10 10 10 10 9 10 8 7 8 10 10 10 9 9 9 10 11 13 18 15 17 18 15 12 9 8 7 10 11 10 9 8 5 5 5 6 6 6 6 6 5 5
Wind_Direction
171 168 172 174 174 172 172 175 182 177 174 180 188 197 197 193 199 201 178 177 189 188 200 198 171 194 187 181 174 172 185 212 205 207 218 225 223 209 195 197 189 191 189
163 167 174 176 177 173 175 178 184 183 185 188 189 195 190 190 198 209 187 184 192 189 198 200 183 187 188 187 184 167 185 226 206 198 200 249 272 240 210 187 198 202 189
168 172 180 183 180 178 179 184 184 183 188 185 185 196 184 194 201 200 193 194 193 196 205 185 199 188 192 188 191 183 195 221 223 214 188 192 213 220 239 214 207 188 189
171 176 178 182 184 179 179 178 179 181 185 186 192 192 195 200 203 193 193 194 198 202 201 193 195 200 205 182 193 194 201 206 229 231 226 223 158 172 220 246 211 194 198
171 170 171 174 179 180 178 177 177 182 185 193 199 199 205 202 199 194 194 197 203 209 204 198 194 199 208 201 205 184 194 201 220 221 210 221 203 215 213 231 228 220 210
159 152 159 164 174 178 177 174 177 184 187 196 201 203 205 201 208 202 194 198 201 210 213 203 197 201 209 204 198 192 201 215 231 236 228 207 203 215 224 224 220 222 227
147 148 156 162 167 172 169 173 175 184 191 197 202 203 208 209 212 209 201 200 205 207 206 206 197 204 206 201 200 198 206 209 220 226 236 235 236 229 229 229 235 233 229
146 146 150 154 161 164 164 169 173 184 191 198 201 206 209 211 215 216 214 211 212 212 200 197 194 200 203 207 197 200 203 208 213 224 226 241 253 254 246 231 236 260 261
143 144 148 151 157 162 164 167 169 179 190 196 197 202 206 210 212 212 216 223 217 216 204 196 196 199 201 208 194 202 205 199 203 223 226 226 249 261 269 268 233 227 256
142 144 144 145 151 157 153 155 156 170 180 184 190 198 197 205 206 211 215 215 222 223 201 200 197 195 197 202 199 199 205 198 199 212 226 223 242 260 264 263 252 231 235
128 129 135 138 147 151 152 152 151 156 166 176 183 188 181 192 201 202 207 207 215 210 204 200 194 192 188 194 194 198 198 196 198 208 212 214 231 267 278 262 250 242 226
117 118 127 130 138 143 144 147 153 160 166 169 167 179 178 178 190 201 201 194 197 192 193 194 192 192 191 192 188 194 193 190 193 202 204 208 218 229 259 277 265 247 232
118 122 133 137 138 139 138 144 156 161 163 162 163 166 178 181 184 191 186 171 168 175 186 188 189 188 187 187 187 190 188 185 191 196 199 208 223 233 240 248 276 289 279
123 129 130 126 126 128 132 141 151 151 148 137 139 143 161 169 161 161 160 157 163 172 183 182 177 171 171 173 179 181 181 177 182 191 198 204 221 230 238 239 256 273 288
117 114 108 107 120 128 135 139 143 137 132 128 132 138 147 148 137 127 126 132 143 151 138 134 134 140 158 177 174 170 169 159 158 166 178 178 170 162 211 242 249 268 279
117 108 101 104 108 118 132 137 132 127 122 123 126 127 127 120 116 116 115 109 107 103 105 108 106 105 129 112 125 135 129 123 130 142 152 134 97 119 140 134 102 92 207
110 102 93 85 91 92 102 108 121 123 122 117 116 119 116 111 112 120 112 110 109 102 93 93 99 91 68 66 85 90 95 99 103 101 90 1 23 43 0 183 163 115 107
100 93 93 92 83 81 94 108 115 119 120 115 115 116 119 115 109 101 92 91 91 91 89 86 89 86 70 69 74 79 98 89 81 73 72 71 52 21 8 5 46 62 32
88 87 84 84 75 73 84 96 109 110 113 118 118 117 116 112 110 106 99 93 92 90 83 77 77 79 64 54 67 81 103 94 81 73 65 66 61 31 26 36 40 38 38
80 74 77 76 71 64 69 79 89 94 97 101 98 99 99 101 103 102 101 96 92 89 83 75 70 73 70 57 62 74 90 95 89 80 70 61 55 38 28 33 36 29 3
75 70 71 72 65 66 70 72 73 75 79 85 90 88 93 97 97 97 98 100 98 94 88 84 76 70 62 59 57 60 65 73 79 76 71 59 53 48 40 40 40 21 338
77 74 74 73 67 65 71 74 72 75 81 85 87 84 83 90 96 97 96 100 104 103 100 96 86 72 63 58 58 61 63 65 76 77 77 74 63 56 47 46 28 14 3
79 78 81 79 71 67 67 77 78 82 87 88 86 84 80 74 76 81 85 89 94 94 93 92 89 80 70 63 63 65 64 66 76 79 88 85 66 52 48 44 24 22 28
82 80 80 79 74 71 69 75 83 85 89 91 90 87 82 73 62 58 56 57 51 71 82 82 84 79 66 53 50 66 73 75 76 75 82 75 42 27 30 36 39 44 41
80 78 78 77 77 75 71 71 81 92 95 95 93 89 84 83 74 65 53 59 51 52 74 79 78 78 71 41 40 52 50 46 49 45 67 69 65 58 53 49 47 43 38
85 83 80 79 77 78 77 73 76 94 100 101 102 100 98 96 96 92 77 57 61 61 65 70 82 74 73 64 53 50 45 39 33 48 59 56 48 44 43 41 39 39 34
Height
1487 1491 1496 1499 1502 1504 1507 1509 1512 1515 1518 1521 1523 1526 1529 1532 1535 1538 1540 1542 1544 1546 1548 1551 1553 1555 1557 1559 1561 1562 1564 1565 1567 1568 1569 1570 1570 1571 1571 1572 1573 1574 1574
1485 1489 1493 1497 1499 1502 1504 1507 1509 1512 1514 1517 1520 1523 1527 1529 1531 1534 1537 1539 1541 1544 1546 1548 1550 1552 1554 1556 1558 1560 1561 1563 1565 1567 1567 1568 1569 1569 1570 1570 1571 1572 1573
1482 1486 1490 1494 1497 1499 1501 1504 1506 1509 1512 1514 1517 1521 1524 1526 1529 1531 1533 1535 1538 1541 1543 1545 1547 1550 1552 1553 1555 1557 1559 1561 1563 1565 1566 1566 1566 1567 1568 1568 1569 1570 1571
1478 1483 1487 1491 1494 1497 1499 1501 1503 1506 1508 1511 1514 1516 1519 1521 1525 1527 1529 1532 1534 1537 1540 1542 1544 1546 1549 1551 1553 1554 1556 1559 1560 1562 1563 1564 1564 1565 1566 1567 1567 1568 1569
1476 1480 1484 1488 1492 1495 1497 1499 1501 1503 1505 1508 1510 1513 1516 1518 1521 1524 1527 1529 1531 1534 1536 1538 1541 1543 1545 1547 1550 1552 1553 1555 1557 1559 1560 1562 1563 1564 1565 1564 1565 1566 1566
1474 1479 1483 1487 1490 1493 1495 1497 1498 1500 1502 1504 1506 1509 1512 1515 1517 1519 1522 1525 1527 1530 1532 1534 1537 1539 1542 1544 1546 1548 1550 1552 1554 1556 1557 1559 1560 1561 1562 1563 1563 1563 1564
1473 1478 1482 1485 1488 1491 1493 1495 1496 1497 1499 1501 1503 1506 1508 1511 1513 1516 1518 1520 1523 1526 1528 1530 1532 1535 1537 1540 1543 1545 1547 1549 1551 1552 1554 1556 1557 1559 1560 1560 1560 1561 1561
1472 1476 1480 1484 1487 1489 1491 1492 1493 1495 1497 1498 1500 1503 1505 1507 1509 1512 1514 1517 1519 1522 1524 1525 1528 1530 1533 1536 1539 1541 1543 1545 1547 1549 1551 1552 1554 1556 1557 1558 1558 1558 1558
1471 1476 1480 1483 1486 1488 1489 1491 1492 1493 1494 1496 1499 1500 1502 1504 1506 1508 1510 1513 1515 1517 1520 1522 1524 1526 1529 1532 1535 1537 1539 1541 1543 1545 1547 1548 1550 1552 1554 1555 1555 1556 1556
1471 1475 1479 1482 1485 1487 1489 1490 1491 1492 1493 1495 1497 1499 1500 1502 1503 1505 1507 1509 1511 1513 1515 1517 1520 1522 1525 1528 1531 1533 1535 1537 1539 1541 1543 1545 1547 1549 1550 1551 1552 1553 1554
1471 1475 1479 1482 1484 1487 1488 1489 1490 1492 1493 1495 1496 1497 1498 1500 1501 1503 1504 1506 1507 1509 1511 1513 1516 1518 1520 1523 1526 1529 1531 1533 1535 1537 1539 1541 1543 1545 1546 1548 1549 1549 1550
1472 1476 1479 1482 1485 1486 1488 1489 1491 1492 1493 1494 1495 1497 1498 1499 1500 1501 1502 1503 1505 1506 1508 1510 1512 1515 1517 1520 1522 1525 1527 1530 1532 1534 1536 1538 1539 1541 1543 1544 1545 1546 1546
1472 1477 1479 1482 1484 1486 1488 1489 1491 1492 1493 1494 1495 1496 1497 1498 1498 1499 1500 1501 1503 1504 1506 1508 1509 1511 1514 1516 1519 1522 1524 1526 1528 1531 1533 1534 1536 1537 1539 1540 1541 1542 1542
1474 1477 1480 1482 1484 1486 1488 1489 1491 1492 1493 1494 1495 1495 1496 1497 1497 1498 1499 1500 1501 1502 1504 1506 1507 1509 1511 1514 1516 1518 1521 1523 1525 1528 1529 1530 1532 1534 1535 1536 1537 1538 1539
1475 1477 1479 1481 1484 1486 1488 1489 1490 1492 1493 1494 1494 1495 1496 1496 1497 1498 1499 1500 1500 1501 1503 1504 1506 1508 1509 1511 1513 1516 1518 1521 1522 1524 1526 1528 1529 1531 1532 1533 1534 1534 1535
1475 1478 1480 1482 1484 1486 1487 1489 1490 1491 1492 1493 1494 1495 1496 1496 1497 1498 1498 1499 1500 1501 1502 1503 1504 1506 1508 1510 1512 1514 1516 1518 1520 1522 1523 1525 1527 1528 1529 1530 1531 1531 1532
1476 1478 1480 1482 1483 1485 1487 1488 1490 1491 1492 1493 1494 1495 1496 1497 1497 1498 1499 1499 1500 1500 1501 1503 1504 1505 1507 1509 1511 1513 1515 1517 1518 1520 1521 1522 1524 1525 1526 1527 1527 1528 1528
1476 1478 1481 1482 1484 1485 1487 1488 1490 1491 1492 1493 1494 1494 1496 1497 1498 1498 1499 1500 1500 1501 1502 1503 1504 1505 1507 1508 1510 1512 1514 1516 1517 1519 1520 1521 1522 1523 1524 1524 1524 1525 1525
1477 1480 1482 1483 1484 1485 1487 1488 1489 1491 1492 1493 1494 1495 1496 1497 1498 1499 1500 1501 1502 1502 1503 1504 1505 1506 1507 1509 1510 1512 1514 1515 1516 1518 1519 1520 1520 1521 1521 1522 1522 1523 1523
1479 1481 1482 1483 1484 1485 1486 1488 1490 1491 1492 1493 1494 1496 1497 1498 1499 1500 1501 1502 1503 1504 1505 1505 1506 1507 1508 1509 1511 1513 1514 1515 1516 1518 1519 1519 1520 1520 1521 1521 1521 1521 1521
1480 1482 1483 1484 1485 1486 1487 1488 1490 1491 1492 1493 1495 1496 1497 1498 1500 1501 1502 1503 1504 1505 1506 1507 1508 1509 1510 1511 1512 1513 1514 1515 1517 1518 1519 1519 1520 1520 1520 1520 1520 1520 1521
1482 1483 1484 1485 1486 1487 1488 1489 1490 1492 1493 1494 1495 1497 1498 1500 1501 1502 1503 1505 1505 1506 1508 1509 1510 1511 1512 1513 1514 1515 1515 1516 1517 1518 1519 1520 1520 1520 1520 1520 1520 1520 1520
1484 1485 1486 1486 1487 1488 1489 1490 1491 1492 1493 1494 1496 1498 1500 1501 1503 1504 1505 1507 1508 1509 1510 1511 1512 1513 1514 1515 1515 1516 1517 1518 1518 1519 1520 1521 1521 1521 1521 1521 1521 1520 1519
1486 1487 1487 1488 1489 1490 1491 1491 1492 1493 1495 1496 1498 1500 1501 1503 1504 1505 1507 1508 1510 1511 1512 1513 1514 1515 1516 1517 1518 1518 1519 1520 1520 1521 1521 1522 1522 1522 1522 1521 1521 1521 1520
1488 1489 1489 1490 1491 1492 1493 1494 1495 1496 1497 1498 1500 1502 1503 1504 1506 1507 1509 1510 1512 1514 1515 1515 1516 1517 1518 1519 1520 1520 1521 1521 1522 1522 1522 1523 1523 1523 1523 1523 1522 1521 1521
1489 1490 1491 1492 1494 1494 1495 1496 1497 1498 1499 1501 1503 1505 1506 1508 1509 1510 1512 1514 1515 1516 1517 1518 1519 1520 1521 1521 1522 1522 1523 1523 1524 1524 1524 1524 1525 1525 1524 1524 1523 1522 1521